sat.trackr.live / text

‹ back to catalog

STARLINK-30109

NORAD 56298 · 2023-056N

PAYLOAD ACTIVE UNKNOWN

§ Identity

Operator
Country
US
Launch date
2023-04-19
Launch site
AFETR
Launch vehicle
Mass (kg)
RCS (m²)

Purposes: comms

External: N2YO · Heavens-Above · Gunter

§ Orbital elements

Epoch: 2026-05-25T00:12:34.229664Z

Period
94.27 min
Inclination
43.0009°
Eccentricity
0.0001014
Mean motion
15.27575845 rev/d
Perigee alt
482.4 km
Apogee alt
483.8 km
Semi-major
6,861.2 km
B*
8.0502e-6
RAAN
137.6965°
Arg perigee
272.4389°
Mean anomaly
87.6346°
Rev number
17,177

§ Raw data

STARLINK-301091 56298U 23056N   26145.00872951 -.00000040  00000+0  80502-5 0  99902 56298  43.0009 137.6965 0001014 272.4389  87.6346 15.27575845171772

JSON: /api/v1/satellites/56298 · /tle

For live sub-satellite position, see the globe view (requires WebGL).

§ Visibility from observer

Set your observer location to see the next 7 days of passes ≥ 10°. The values pass through the URL so the page stays shareable.

No JS? Fill the form by hand. The geolocation button needs JavaScript.